Showing default

SZ-21, 66263

Orbit data source: Space-Track

SZ-21, 66263 is a payload satellite owned by ZZHGB (CN) in LEO that was launched on Fri, 31 Oct 2025 UTC via an FALCON 9 launch vehicle from the Jiuquan Satellite Launch Center, China (JSC). Payload-class satellites include a variety of spacecraft equipped with specific instruments for various scientific and technological missions. These include communications satellites like Starlink; space stations such as the ISS; scientific satellites like the Hubble; Earth observation satellites from companies like Planet Labs, Umbra, and HawkEye 360; GPS; miniature CubeSats for education and research; and military/defense satellites.

Loading next visibility...
Identifier
66263, 2025-246A
Orbit
LEO
Country
Flag of CNCN / PRC
Related business
Manufacturer
CALT
Mission
Operational spacecraft
Bus & Motor
SHENZHOU, Unknown motor
Mass
~8,100 kg wet, 3,258 kg dry
Launch date (UTC)
2025-10-31 (1 week ago)
Launch vehicle
FALCON 9
Launch site
Jiuquan Satellite Launch Center, China (JSC)
Object type
Payload
Rocket body
Debris
Shape & HBR
Unknown
Radar Cross Section
RCS unknown

Expand to show TLE details & history
Last TLE update: 21 hours ago

TLE from 21 hours ago
0 SZ-21
1 66263U 25246A   25311.04013910  .00032955  00000-0  38997-3 0  9995
2 66263  41.4666 233.4859 0005699 336.2635  23.7940 15.60556280258135
Epoch: 2025-11-07T00:57Z
TLE epoch observation values (Epoch: 2025-11-07T00:57:48.018Z)
Latitude
-0.00002°
Longitude
172.54599°
Altitude
382.122 km
Speed
7.685 km/s
True Right ascension
15h 33m 56s
True Declination
0° 00' 00"
Sunlit
Object was in daylight at epoch
Visualization orbit readout
Latitude
Unknown
Longitude
Unknown
Altitude
Unknown
Speed
Unknown
Apparent Right ascension
Unknown
Apparent Declination
Unknown
Sunlit
N/A
Visualization observer readout
Local Sidereal Time
17:59:25
Azimuth
Unknown
Elevation
Unknown
Doppler factor
Unknown
Orbital elements
Apogee altitude
392.139 km
Perigee altitude
384.426 km
Semi-major axis
6,766.419 km
Eccentricity
0.00057
Inclination
41.4666°
RAAN
233.4859°
Arg. of periapsis
336.2635°
True anomaly
23.82036°
Mean anomaly
23.794°
Eccentric anomaly
23.80718°
Mean motion
3.89946 °/min
Orbital period
92.32 mins
BSTAR
0.00038997
Loading maneuver chart data...
Computing Atmospheric mass density...
Loading historical data...
Loading historical data...
Loading historical data...
Loading historical data...
Loading historical data...
Loading historical data...
Loading historical data...
Other satellites on launch #246 in the year 2025 (2025-10-31 UTC)

Documentation

Showing up to 5 results
|